CW0453 Weather Reports


Display with metric or nautical units.
time (UTC)temp
F
wind
direction
speed
MPH
gust
MPH
rain 1hr
in
rain 24hr
in
rain mn
in
humidity
%
barometer
mb
20180224021512 23 46 7.0 10.0 0.00 0.08 0.00 88 1024.0
20180224021014 23 30 4.0 6.0 0.00 0.08 0.00 88 1024.0
20180224020519 23 48 4.0 11.0 0.00 0.08 0.00 88 1024.2
20180224020021 23 27 4.0 11.0 0.00 0.08 0.00 87 1024.0
20180224015525 23 19 6.0 10.0 0.00 0.12 0.00 87 1023.9
20180224015027 23 27 5.0 11.0 0.00 0.12 0.00 87 1024.1
20180224014531 23 22 6.0 12.0 0.00 0.12 0.00 87 1024.0
20180224014015 23 27 8.0 13.0 0.00 0.12 0.00 87 1023.9
20180224013519 23 12 6.0 11.0 0.00 0.12 0.00 87 1023.8
20180224013026 23 15 8.0 11.0 0.00 0.12 0.00 87 1023.9
20180224012020 24 16 9.0 13.0 0.00 0.12 0.00 87 1023.8
20180224011522 24 23 8.0 13.0 0.00 0.12 0.00 87 1023.7
20180224011027 24 15 6.0 10.0 0.00 0.12 0.00 87 1023.8
20180224010530 24 5 4.0 10.0 0.00 0.12 0.00 87 1023.9
20180224010013 24 15 6.0 10.0 0.00 0.12 0.00 87 1024.0
20180224005515 24 15 4.0 11.0 0.00 0.13 0.00 87 1024.1
20180224005016 24 29 5.0 11.0 0.00 0.13 0.00 87 1024.0
20180224004521 24 45 6.0 11.0 0.00 0.13 0.00 87 1024.0
20180224004025 24 24 6.0 11.0 0.00 0.13 0.00 87 1024.0
20180224003528 24 23 7.0 11.0 0.00 0.13 0.00 87 1024.0
20180224003032 24 32 6.0 12.0 0.00 0.13 0.00 87 1023.9
20180224002514 24 28 7.0 13.0 0.00 0.13 0.00 87 1023.9
20180224002129 24 29 7.0 13.0 0.00 0.13 0.00 87 1023.9
20180224001519 25 13 4.0 10.0 0.00 0.13 0.00 87 1023.8
20180224001024 24 30 6.0 12.0 0.00 0.13 0.00 87 1023.9
20180224000525 24 10 6.0 12.0 0.00 0.13 0.00 87 1023.8
20180224000028 24 337 8.0 12.0 0.00 0.13 0.00 87 1023.6
20180223235529 24 342 8.0 12.0 0.00 0.13 0.00 86 1023.7
20180223235015 24 339 7.0 12.0 0.00 0.13 0.00 86 1023.7
20180223234517 25 355 5.0 10.0 0.00 0.13 0.00 86 1023.6
20180223234020 25 19 5.0 13.0 0.00 0.13 0.00 86 1023.8
20180223233523 25 348 9.0 13.0 0.00 0.13 0.00 86 1023.9
20180223233022 25 355 7.0 11.0 0.00 0.13 0.00 86 1023.9
20180223232524 25 350 6.0 10.0 0.00 0.13 0.00 86 1024.0
20180223232027 25 338 7.0 10.0 0.00 0.13 0.00 86 1024.1
20180223231529 25 350 5.0 12.0 0.00 0.13 0.00 85 1024.1
20180223231012 25 16 6.0 12.0 0.00 0.13 0.00 85 1024.1
20180223230515 25 5 7.0 11.0 0.00 0.13 0.00 84 1024.1
20180223230018 26 41 7.0 11.0 0.00 0.13 0.00 84 1024.1
20180223225518 26 29 6.0 11.0 0.00 0.13 0.00 84 1024.2
20180223225022 26 25 6.0 11.0 0.00 0.13 0.00 84 1024.3
20180223224525 26 39 5.0 12.0 0.00 0.13 0.00 84 1024.1
20180223224031 26 350 7.0 14.0 0.00 0.13 0.00 83 1024.0
20180223223512 27 5 9.0 14.0 0.00 0.13 0.00 83 1024.1
20180223223014 27 18 7.0 12.0 0.00 0.13 0.00 84 1024.1
20180223222517 27 5 8.0 12.0 0.00 0.13 0.00 85 1024.3
20180223222018 26 336 9.0 12.0 0.00 0.13 0.00 84 1024.3
20180223221522 27 344 0.0 0.0 0.00 0.13 0.00 83 1024.3
20180223221026 27 360 0.0 0.0 0.00 0.13 0.00 83 1024.4
20180223220527 27 355 0.0 0.0 0.00 0.13 0.00 84 1024.3
20180223220029 27 342 0.0 0.0 0.00 0.13 0.00 83 1024.3
20180223215530 27 346 0.0 0.0 0.00 0.13 0.00 83 1024.4
20180223215013 27 19 0.0 0.0 0.00 0.13 0.00 83 1024.4
20180223214519 28 336 0.0 0.0 0.00 0.13 0.00 82 1024.6
20180223214020 27 333 0.0 0.0 0.00 0.13 0.00 83 1024.6
20180223213524 27 344 0.0 0.0 0.00 0.13 0.00 83 1024.7
20180223213028 27 355 0.0 0.0 0.00 0.13 0.00 82 1024.8
20180223212530 27 342 0.0 0.0 0.00 0.13 0.00 82 1024.8
20180223212013 27 5 0.0 0.0 0.00 0.13 0.00 81 1024.8
20180223211517 27 24 0.0 0.0 0.00 0.13 0.00 83 1024.8
20180223211018 27 5 0.0 0.0 0.00 0.13 0.00 83 1024.8
20180223210523 27 342 0.0 0.0 0.00 0.13 0.00 84 1024.9
20180223210025 27 346 0.0 0.0 0.00 0.13 0.00 83 1024.9
20180223205527 27 344 0.0 0.0 0.00 0.13 0.00 84 1024.9
20180223205013 27 350 0.0 0.0 0.00 0.13 0.00 85 1024.9
20180223204516 27 337 0.0 0.0 0.00 0.13 0.00 85 1025.0
20180223204020 27 355 0.0 0.0 0.00 0.13 0.00 85 1024.9
20180223203523 27 307 0.0 0.0 0.00 0.13 0.00 84 1024.7
20180223203026 27 20 0.0 0.0 0.00 0.13 0.00 85 1024.8
20180223202513 27 345 0.0 0.0 0.00 0.13 0.00 85 1024.8
20180223202016 26 312 0.0 0.0 0.00 0.13 0.00 85 1024.7
20180223201519 27 339 0.0 0.0 0.00 0.13 0.00 85 1024.6
20180223201019 27 344 0.0 0.0 0.00 0.13 0.00 86 1024.7
20180223200522 27 306 0.0 0.0 0.00 0.13 0.00 86 1024.7
20180223200026 27 326 0.0 0.0 0.00 0.13 0.00 86 1024.7
20180223195530 27 330 0.0 0.0 0.00 0.13 0.00 85 1024.7
20180223195031 27 316 0.0 0.0 0.00 0.13 0.00 85 1024.7
20180223194515 27 309 0.0 0.0 0.00 0.13 0.00 85 1024.7
20180223194020 27 325 0.0 0.0 0.00 0.13 0.00 84 1024.9
20180223193523 27 329 0.0 0.0 0.00 0.13 0.00 85 1024.9
20180223193026 27 325 0.0 0.0 0.00 0.13 0.00 85 1024.9
20180223192529 26 322 0.0 0.0 0.00 0.13 0.00 86 1024.9
20180223192031 26 309 0.0 0.0 0.00 0.13 0.00 86 1025.1
20180223191513 26 331 0.0 0.0 0.00 0.13 0.00 86 1025.1
20180223191019 26 316 0.0 0.0 0.00 0.13 0.00 85 1025.2
20180223190525 26 302 0.0 0.0 0.00 0.13 0.00 86 1025.3
20180223190031 26 315 0.0 0.0 0.00 0.13 0.00 85 1025.5
20180223185513 27 325 0.0 0.0 0.00 0.13 0.00 84 1025.6
20180223185019 27 317 0.0 0.0 0.00 0.13 0.00 85 1025.6
20180223184521 26 321 0.0 0.0 0.00 0.13 0.00 84 1025.7
20180223184025 26 319 0.0 0.0 0.00 0.13 0.00 85 1025.8
20180223183532 27 302 0.0 0.0 0.00 0.13 0.00 85 1025.9
20180223183015 27 344 0.0 0.0 0.00 0.13 0.00 86 1025.8
20180223182517 27 300 0.0 0.0 0.00 0.13 0.00 86 1025.8
20180223182019 27 278 0.0 0.0 0.00 0.13 0.00 85 1025.9
20180223181521 27 296 0.0 0.0 0.00 0.13 0.00 85 1025.8
20180223181024 26 310 0.0 0.0 0.00 0.13 0.00 86 1025.8
20180223180527 27 305 0.0 0.0 0.00 0.13 0.00 87 1025.8
20180223180029 27 286 0.0 0.0 0.00 0.13 0.00 86 1025.9
20180223175532 27 299 0.0 0.0 0.00 0.13 0.00 86 1025.9
20180223175015 26 310 0.0 0.0 0.00 0.13 0.00 85 1025.9
20180223174517 27 348 0.0 0.0 0.00 0.13 0.00 84 1025.8
20180223174020 26 314 0.0 4.0 0.00 0.13 0.00 87 1025.9
20180223173523 26 279 0.0 4.0 0.00 0.13 0.00 86 1025.9
20180223173024 26 292 2.0 5.0 0.00 0.13 0.00 86 1025.8
20180223172526 26 304 2.0 5.0 0.00 0.13 0.00 86 1025.9
20180223172027 25 300 2.0 4.0 0.00 0.13 0.00 87 1026.0
20180223171530 25 267 3.0 4.0 0.00 0.13 0.00 86 1025.9
20180223171013 26 285 1.0 4.0 0.00 0.13 0.00 86 1025.9
20180223170515 25 293 2.0 4.0 0.00 0.13 0.00 86 1025.9
20180223170020 25 296 2.0 4.0 0.00 0.13 0.00 86 1025.9
20180223165525 25 297 3.0 4.0 0.00 0.13 0.00 86 1025.9
20180223165032 25 299 2.0 4.0 0.00 0.13 0.00 86 1025.8
20180223164516 25 288 2.0 5.0 0.00 0.13 0.00 86 1025.7
20180223164018 25 296 3.0 5.0 0.00 0.13 0.00 87 1025.4
20180223163520 25 321 4.0 5.0 0.00 0.13 0.00 87 1025.2
20180223163027 25 300 3.0 4.0 0.00 0.13 0.00 86 1025.2
20180223162532 24 307 2.0 3.0 0.00 0.13 0.00 86 1025.2
20180223162016 24 308 2.0 3.0 0.00 0.13 0.00 86 1025.3
20180223161520 24 308 2.0 3.0 0.00 0.13 0.00 85 1025.5
20180223161024 25 310 1.0 3.0 0.00 0.13 0.00 86 1025.3
20180223160531 25 310 1.0 5.0 0.00 0.13 0.00 87 1025.2
20180223160014 24 310 2.0 6.0 0.00 0.13 0.00 86 1025.0
20180223155518 24 331 3.0 6.0 0.00 0.13 0.00 87 1024.8
20180223155023 24 315 4.0 6.0 0.00 0.13 0.00 87 1024.5
20180223154528 23 325 5.0 8.0 0.00 0.13 0.00 87 1024.4
20180223154013 23 346 7.0 8.0 0.00 0.13 0.00 87 1024.3
20180223153517 23 347 5.0 9.0 0.00 0.13 0.00 87 1024.0
20180223153021 23 351 5.0 11.0 0.00 0.13 0.00 88 1024.0
20180223152525 23 355 6.0 11.0 0.00 0.13 0.00 88 1023.7
20180223152028 23 355 7.0 11.0 0.00 0.13 0.00 88 1023.7
20180223151532 23 342 7.0 11.0 0.00 0.13 0.00 88 1023.4
20180223151015 23 330 8.0 12.0 0.00 0.13 0.00 88 1023.4
20180223150517 22 342 8.0 11.0 0.00 0.13 0.00 88 1023.3
20180223150039 22 322 6.0 10.0 0.00 0.13 0.00 89 1023.6
20180223145529 22 315 5.0 10.0 0.00 0.14 0.00 89 1023.8
20180223145013 22 303 6.0 10.0 0.00 0.14 0.00 89 1023.8
20180223144517 22 330 6.0 9.0 0.00 0.14 0.00 90 1023.7
20180223144019 22 322 6.0 8.0 0.00 0.14 0.00 91 1023.7
20180223143522 21 338 3.0 10.0 0.00 0.14 0.00 92 1023.5
20180223143026 21 302 4.0 10.0 0.00 0.14 0.00 92 1023.3
20180223142528 20 302 5.0 9.0 0.00 0.14 0.00 92 1023.2
20180223142029 20 293 5.0 8.0 0.00 0.14 0.00 92 1023.1
20180223141514 20 288 4.0 8.0 0.00 0.14 0.00 92 1023.0
20180223141018 20 283 4.0 8.0 0.00 0.14 0.00 93 1023.0
20180223140518 20 299 5.0 8.0 0.00 0.14 0.00 93 1022.8
20180223140021 20 288 4.0 7.0 0.00 0.14 0.00 93 1022.9
20180223135526 20 296 5.0 7.0 0.00 0.15 0.00 93 1022.6
20180223135029 19 315 3.0 7.0 0.00 0.15 0.00 93 1022.7
20180223134512 20 300 4.0 7.0 0.00 0.15 0.00 93 1022.8
20180223134016 20 298 4.0 9.0 0.00 0.15 0.00 93 1022.8
20180223133518 20 298 4.0 9.0 0.00 0.15 0.00 93 1022.9
20180223133023 19 279 5.0 9.0 0.00 0.15 0.00 93 1022.9
20180223132526 19 298 4.0 7.0 0.00 0.15 0.00 93 1022.9
20180223132027 19 291 3.0 5.0 0.00 0.15 0.00 93 1022.8
20180223131529 19 305 3.0 5.0 0.00 0.15 0.00 93 1022.7
20180223131030 20 287 2.0 4.0 0.00 0.15 0.00 93 1022.6
20180223130514 19 282 2.0 4.0 0.00 0.15 0.00 93 1022.7
20180223130018 20 296 2.0 5.0 0.00 0.15 0.00 93 1022.7
20180223125521 20 284 3.0 5.0 0.00 0.15 0.00 93 1022.6
20180223125024 20 280 3.0 6.0 0.00 0.15 0.00 93 1022.5
20180223124512 20 280 3.0 5.0 0.00 0.15 0.00 93 1022.5
20180223124016 20 279 3.0 6.0 0.00 0.15 0.00 93 1022.5
20180223123520 21 286 3.0 5.0 0.00 0.15 0.00 93 1022.4
20180223123020 21 292 3.0 6.0 0.00 0.15 0.00 93 1022.5
20180223122521 21 283 4.0 6.0 0.00 0.15 0.00 94 1022.5
20180223122024 21 298 4.0 6.0 0.00 0.15 0.00 93 1022.5
20180223121525 21 274 2.0 4.0 0.00 0.15 0.00 93 1022.5
20180223120515 21 280 3.0 6.0 0.00 0.15 0.00 93 1022.5
20180223120016 21 286 3.0 7.0 0.00 0.15 0.00 93 1022.5
20180223115518 22 283 4.0 7.0 0.00 0.16 0.00 94 1022.4
20180223115019 22 283 4.0 7.0 0.00 0.16 0.00 94 1022.3
20180223114519 22 288 3.0 8.0 0.00 0.16 0.00 94 1022.3
20180223114022 21 280 4.0 7.0 0.00 0.16 0.00 94 1022.2
20180223113525 21 273 4.0 7.0 0.00 0.16 0.00 93 1022.2
20180223113029 22 288 3.0 7.0 0.00 0.16 0.00 93 1022.0
20180223112532 22 278 4.0 7.0 0.00 0.16 0.00 93 1022.1
20180223112015 21 281 3.0 7.0 0.00 0.16 0.00 93 1022.0
20180223111517 22 276 5.0 6.0 0.00 0.16 0.00 93 1021.9
20180223111020 22 277 3.0 7.0 0.00 0.16 0.00 93 1021.9
20180223110524 22 263 4.0 7.0 0.00 0.16 0.00 93 1021.9
20180223110027 22 270 3.0 6.0 0.00 0.16 0.00 93 1021.8
20180223105514 22 275 4.0 6.0 0.00 0.16 0.00 93 1021.6
20180223105017 22 274 4.0 6.0 0.00 0.16 0.00 93 1021.5
20180223104520 22 286 3.0 6.0 0.00 0.16 0.00 93 1021.6
20180223104024 23 271 2.0 6.0 0.00 0.16 0.00 93 1021.7
20180223103528 23 268 3.0 6.0 0.00 0.16 0.00 92 1021.7
20180223103015 23 277 2.0 8.0 0.00 0.16 0.00 93 1021.7
20180223102516 23 281 5.0 7.0 0.00 0.16 0.00 93 1021.6
20180223102019 23 271 4.0 7.0 0.00 0.16 0.00 92 1021.5
20180223101523 24 285 4.0 7.0 0.00 0.16 0.00 93 1021.5
20180223101025 24 273 4.0 7.0 0.00 0.16 0.00 93 1021.5
20180223100528 24 269 4.0 7.0 0.00 0.16 0.00 92 1021.5
20180223100032 24 280 4.0 8.0 0.00 0.16 0.00 92 1021.6
20180223095516 25 288 3.0 8.0 0.00 0.17 0.00 92 1021.5
20180223095020 25 273 5.0 9.0 0.00 0.17 0.00 92 1021.5
20180223094525 25 271 5.0 9.0 0.00 0.17 0.00 92 1021.4
20180223094026 25 286 5.0 9.0 0.00 0.17 0.00 92 1021.5
20180223093528 26 275 5.0 9.0 0.00 0.17 0.00 92 1021.5
20180223093032 26 272 4.0 9.0 0.00 0.17 0.00 92 1021.6
20180223092513 26 281 5.0 9.0 0.00 0.17 0.00 93 1021.5
20180223092015 27 276 5.0 9.0 0.00 0.17 0.00 93 1021.4
20180223091520 27 267 4.0 7.0 0.00 0.17 0.00 93 1021.5
20180223091022 27 261 4.0 7.0 0.00 0.17 0.00 93 1021.5
20180223090526 27 259 3.0 7.0 0.00 0.17 0.00 93 1021.4
20180223090028 27 267 4.0 7.0 0.00 0.17 0.00 92 1021.3
20180223085532 27 275 4.0 8.0 0.00 0.17 0.00 92 1021.2
20180223085013 27 275 5.0 8.0 0.00 0.17 0.00 92 1021.3
20180223084516 27 271 4.0 7.0 0.00 0.17 0.00 92 1021.3
20180223084020 27 281 4.0 7.0 0.00 0.17 0.00 92 1021.3
20180223083522 27 281 3.0 7.0 0.00 0.17 0.00 92 1021.2
20180223083015 27 266 2.0 6.0 0.00 0.17 0.00 92 1021.2
20180223082517 27 278 4.0 5.0 0.00 0.17 0.00 92 1021.2
20180223082022 27 281 3.0 5.0 0.00 0.17 0.00 92 1021.1
20180223081524 27 277 2.0 7.0 0.00 0.17 0.00 92 1021.2
20180223080515 28 288 4.0 7.0 0.00 0.17 0.00 92 1021.2
20180223080020 28 281 3.0 7.0 0.00 0.17 0.00 92 1021.2
20180223075519 28 278 4.0 7.0 0.00 0.17 0.00 92 1021.1
20180223075021 28 286 3.0 5.0 0.00 0.17 0.00 92 1021.1
20180223074524 28 290 3.0 5.0 0.00 0.17 0.00 92 1021.1
20180223074028 28 288 3.0 5.0 0.00 0.17 0.00 92 1021.0
20180223073531 28 292 3.0 5.0 0.00 0.17 0.00 92 1021.0
20180223073016 28 296 3.0 6.0 0.00 0.17 0.00 92 1020.9
20180223072518 28 300 4.0 6.0 0.00 0.17 0.00 92 1020.9
20180223072019 28 306 3.0 8.0 0.00 0.17 0.00 92 1020.8
20180223071522 28 308 5.0 8.0 0.00 0.17 0.00 93 1020.8
20180223071025 28 294 5.0 8.0 0.00 0.17 0.00 93 1020.9
20180223070529 28 313 3.0 9.0 0.00 0.17 0.00 93 1020.8
20180223070034 28 302 6.0 10.0 0.00 0.17 0.00 93 1020.9
20180223065516 29 312 5.0 10.0 0.00 0.24 0.00 93 1020.9
20180223065019 29 264 5.0 10.0 0.00 0.24 0.00 93 1020.9
20180223064520 29 286 7.0 10.0 0.00 0.24 0.00 94 1021.0
20180223064021 29 289 7.0 9.0 0.01 0.24 0.00 94 1021.0
20180223063523 29 288 6.0 10.0 0.01 0.24 0.00 94 1020.9
20180223063026 30 279 7.0 10.0 0.01 0.24 0.00 94 1021.0
20180223062531 30 281 5.0 8.0 0.01 0.24 0.00 94 1020.9
20180223062016 30 277 4.0 8.0 0.01 0.24 0.00 94 1020.9
20180223061519 30 273 4.0 7.0 0.01 0.24 0.00 94 1020.7
20180223061025 30 273 4.0 7.0 0.01 0.24 0.00 94 1020.7
20180223060526 30 273 4.0 6.0 0.01 0.24 0.00 94 1020.6
20180223060030 30 273 2.0 6.0 0.01 0.24 0.00 94 1020.6
20180223055515 30 274 2.0 6.0 0.01 0.24 0.28 94 1020.4
20180223055016 30 274 4.0 7.0 0.01 0.24 0.28 94 1020.6
20180223054518 30 272 4.0 7.0 0.01 0.24 0.28 94 1020.6
20180223054023 30 273 3.0 6.0 0.00 0.23 0.27 94 1020.5
20180223053526 30 273 2.0 4.0 0.00 0.23 0.27 94 1020.3
20180223053029 30 273 2.0 3.0 0.00 0.23 0.27 94 1020.1
20180223052532 30 273 1.0 2.0 0.00 0.23 0.27 94 1019.9
20180223052014 30 273 1.0 3.0 0.00 0.23 0.27 95 1019.9
20180223051517 30 273 2.0 3.0 0.00 0.23 0.27 94 1020.1
20180223051020 30 273 2.0 3.0 0.00 0.23 0.27 95 1020.0
20180223050524 30 273 1.0 3.0 0.00 0.23 0.27 95 1020.2
20180223050025 30 273 1.0 4.0 0.00 0.23 0.27 95 1020.1
20180223045523 30 273 2.0 4.0 0.00 0.23 0.27 95 1020.3
20180223045024 30 273 2.0 3.0 0.01 0.23 0.27 95 1020.5
20180223044527 30 273 1.0 4.0 0.01 0.23 0.27 95 1020.5
20180223044030 30 273 2.0 4.0 0.01 0.23 0.27 95 1020.6
20180223043515 30 273 2.0 6.0 0.02 0.23 0.27 95 1020.7
20180223043020 30 273 3.0 6.0 0.02 0.23 0.27 95 1020.7
20180223042524 30 273 3.0 6.0 0.03 0.23 0.27 95 1020.9
20180223042025 30 280 3.0 5.0 0.03 0.23 0.27 95 1020.9
20180223041529 30 281 3.0 6.0 0.04 0.23 0.27 95 1020.9
20180223041031 30 275 3.0 6.0 0.05 0.23 0.27 95 1020.8
20180223040518 30 256 2.0 6.0 0.05 0.23 0.27 95 1021.1
20180223040021 30 265 4.0 6.0 0.05 0.23 0.27 95 1021.0
20180223035522 30 253 2.0 4.0 0.05 0.23 0.27 95 1020.9
20180223035023 30 249 2.0 5.0 0.04 0.22 0.26 95 1021.0
20180223034524 30 249 3.0 5.0 0.04 0.22 0.26 95 1021.1
20180223034028 30 242 3.0 5.0 0.04 0.22 0.26 95 1021.2
20180223033531 30 242 4.0 4.0 0.03 0.21 0.25 95 1021.1
20180223033014 30 257 3.0 4.0 0.03 0.21 0.25 95 1021.1
20180223032515 30 215 2.0 3.0 0.03 0.20 0.24 95 1021.2
20180223032018 30 191 1.0 4.0 0.03 0.20 0.24 95 1021.0
20180223031521 30 191 1.0 4.0 0.02 0.19 0.23 95 1021.1
20180223031023 30 191 1.0 3.0 0.02 0.18 0.22 95 1021.2
20180223030527 30 191 1.0 3.0 0.02 0.18 0.22 95 1021.1
20180223030032 30 191 0.0 3.0 0.02 0.18 0.22 94 1021.1
20180223025516 30 191 1.0 3.0 0.03 0.18 0.22 95 1021.1
20180223025019 30 191 2.0 2.0 0.03 0.18 0.22 95 1021.2
20180223024520 30 191 1.0 2.0 0.05 0.18 0.22 95 1021.1
20180223024022 30 191 2.0 3.0 0.06 0.18 0.22 95 1021.1
20180223023524 30 191 2.0 3.0 0.06 0.18 0.22 95 1021.1
20180223023025 30 191 2.0 4.0 0.06 0.18 0.22 95 1021.0
20180223022527 30 191 2.0 4.0 0.05 0.17 0.21 95 1021.0
20180223022013 30 191 2.0 5.0 0.05 0.17 0.21 95 1021.2